Zurück zum Katalog

THOR ABLESTAR DEB

AktivLEO
NORAD 357·DEBRIS·🇺🇸 United States

Gestartet Jun 29, 1961 von Cape Canaveral Space Force Station

Loading…

Nächste Überflüge (nächste 24 Stunden)

TLE

AktuellSource: Space-Track

Epoche: Sep 14, 2026, 14:41 UTC

1 00357U 61015DX  26257.61224605  .00000640  00000-0  41018-3 0  9993
2 00357  66.8099  20.9673 0009743 167.0201 193.1140 14.09716029308461

Verfolge THOR ABLESTAR DEB in Echtzeit mit AllMySat

Download on the App Store